Regional Weather Roundup
Issued by NWS Albany, NY

Home | Current Version | Previous Version | Text Only | Print | Product List | Glossary On
Versions: 1 2 3 4 5 6 7 8 9 10 11 12 13 14 15 16 17 18 19 20 21 22 23 24 25 26 27 28 29 30 31 32 33 34 35 36 37 38 39 40 41 42 43 44 45 46
000
ASUS41 KALY 270910
RWRALY

NEW YORK STATE HOURLY WEATHER ROUNDUP
NATIONAL WEATHER SERVICE ALBANY NY
500 AM EDT THU AUG 27 2015

NOTE: "FAIR" INDICATES FEW OR NO CLOUDS BELOW 12,000 FEET WITH NO
SIGNIFICANT WEATHER AND/OR NO OBSTRUCTIONS TO VISIBILITY.

NYZ032-033-038>043-046>054-057>066-NYZ062>081-271000-
EAST


CITY           SKY/WX    TMP DP  RH WIND       PRES   REMARKS
ALBANY         MOCLDY    64  56  75 CALM      30.00S
GLENS FALLS    CLOUDY    58  53  84 CALM      29.99R
POUGHKEEPSIE   CLOUDY    59  56  89 CALM      30.00S
MONTGOMERY     CLOUDY    65  56  72 W8        30.01S
WHITE PLAINS   CLEAR     61  55  81 NW3       30.00S
ISLIP          CLEAR     62  57  83 CALM      29.98R
NEW YORK CITY  CLEAR     69  55  60 NW5       30.00R
CENTRAL PARK   CLEAR     67  54  63 NW5       30.04R
$$

NYZ005>009-017-018-044>046-055-056-271000-
CENTRAL


CITY           SKY/WX    TMP DP  RH WIND       PRES   REMARKS
FULTON         LGT RAIN  60  58  92 SW7       30.04S
SYRACUSE       DRIZZLE   60  59  96 W8        30.04S FOG
ROME           CLOUDY    59  58  96 W9        30.04S
ELMIRA         CLOUDY    58  57  97 W3        30.08R
BINGHAMTON     CLOUDY    56  54  93 W6        30.07R
MONTICELLO     PTCLDY    57  54  88 NW8       30.06S
$$

NYZ026>034-041>043-271000-
NORTH


CITY           SKY/WX    TMP DP  RH WIND       PRES   REMARKS
WATERTOWN      CLOUDY    60  56  86 NW6       30.02R
FORT DRUM      NOT AVBL
MASSENA        CLOUDY    60  55  83 SW7       29.99R
SARANAC LAKE   CLOUDY    57  54  89 W5        29.99S
PLATTSBURGH    CLOUDY    63  56  78 CALM      29.95F
$$

NYZ001>004-010>016-019>021-271000-
WEST


CITY           SKY/WX    TMP DP  RH WIND       PRES   REMARKS
NIAGARA FALLS  CLOUDY    58  52  80 W7        30.08S
BUFFALO        CLOUDY    58  51  78 W8        30.09S
DUNKIRK        CLOUDY    61  54  77 NW5       30.10S
JAMESTOWN      CLOUDY    55  52  88 CALM      30.12S
WELLSVILLE     CLOUDY    55  52  89 W6        30.13R
ROCHESTER      CLOUDY    59  54  83 SW8       30.07S
PENN YAN       CLOUDY    59  53  80 W5        30.08S
$$

             KEY
       WCI = WIND CHILL INDEX
       VSB = VISIBILITY
       HX  = HEAT INDEX
$$


USA.gov is the U.S. government's official web portal to all federal, state and local government web resources and services.